TimePST,TemperatureF,Dew PointF,Humidity,Sea Level PressureIn,VisibilityMPH,Wind Direction,Wind SpeedMPH,Gust SpeedMPH,PrecipitationIn,Events,Conditions,WindDirDegrees,DateUTC
12:52 AM,57.9,24.1,27,29.70,10.0,Calm,Calm,-,N/A,,Clear,0,2013-11-04 08:52:00
1:52 AM,52.0,21.9,31,29.69,10.0,North,5.8,-,N/A,,Clear,350,2013-11-04 09:52:00
2:52 AM,51.1,25.0,36,29.69,10.0,NNW,5.8,-,N/A,,Clear,330,2013-11-04 10:52:00
3:52 AM,52.0,26.1,37,29.69,10.0,NNW,5.8,-,N/A,,Clear,330,2013-11-04 11:52:00
4:52 AM,48.0,25.0,41,29.70,10.0,North,4.6,-,N/A,,Clear,10,2013-11-04 12:52:00
5:52 AM,48.0,25.0,41,29.71,10.0,North,3.5,-,N/A,,Clear,10,2013-11-04 13:52:00
6:52 AM,53.1,27.0,37,29.74,10.0,NNW,4.6,-,N/A,,Clear,340,2013-11-04 14:52:00
7:52 AM,61.0,30.0,31,29.76,10.0,Calm,Calm,-,N/A,,Clear,0,2013-11-04 15:52:00
8:52 AM,64.9,30.9,28,29.78,10.0,East,3.5,-,N/A,,Clear,100,2013-11-04 16:52:00
9:52 AM,68.0,32.0,26,29.77,10.0,Calm,Calm,-,N/A,,Clear,0,2013-11-04 17:52:00
10:52 AM,72.0,36.0,27,29.74,10.0,Calm,Calm,-,N/A,,Clear,0,2013-11-04 18:52:00
11:52 AM,73.9,34.0,23,29.72,10.0,Calm,Calm,-,N/A,,Clear,0,2013-11-04 19:52:00
12:52 PM,75.0,32.0,21,29.69,10.0,NNE,6.9,-,N/A,,Clear,20,2013-11-04 20:52:00
1:52 PM,77.0,30.9,19,29.69,10.0,North,5.8,-,N/A,,Clear,350,2013-11-04 21:52:00
2:52 PM,78.1,30.0,17,29.69,10.0,Variable,3.5,-,N/A,,Clear,0,2013-11-04 22:52:00
3:52 PM,77.0,28.9,17,29.69,10.0,Calm,Calm,-,N/A,,Clear,0,2013-11-04 23:52:00
4:52 PM,73.9,30.0,20,29.70,10.0,North,8.1,-,N/A,,Clear,350,2013-11-05 00:52:00
5:52 PM,70.0,30.0,23,29.73,10.0,North,10.4,-,N/A,,Clear,360,2013-11-05 01:52:00
6:52 PM,69.1,27.0,21,29.75,10.0,NNW,11.5,-,N/A,,Clear,340,2013-11-05 02:52:00
7:52 PM,66.0,24.1,20,29.78,10.0,NNW,11.5,-,N/A,,Clear,340,2013-11-05 03:52:00
8:52 PM,64.9,24.1,21,29.79,10.0,NNW,13.8,-,N/A,,Clear,340,2013-11-05 04:52:00
9:52 PM,66.0,25.0,21,29.82,10.0,North,18.4,-,N/A,,Clear,360,2013-11-05 05:52:00
10:52 PM,64.0,26.1,24,29.83,10.0,NNW,15.0,-,N/A,,Clear,340,2013-11-05 06:52:00
11:52 PM,62.1,28.9,29,29.85,10.0,NNW,13.8,-,N/A,,Clear,330,2013-11-05 07:52:00